When you browse on this site, cookies collect data to enhance your experience and personalize the content and advertising you see.
Visit our Privacy Policy to learn more. By continuing to use the site, you agree to this use of cookies and data.

Hourly Weather Maracay

Today, 26 September, Saturday

Time Temperature Precipitation Wind Pressure Humidity
00:00 +24°C° 0 mm 1 mps 711 mmHg 86%
01:00 +23°C° 0 mm 1 mps 711 mmHg 87%
02:00 +23°C° 0 mm 1 mps 711 mmHg 87%
03:00 +23°C° 0 mm 1 mps 711 mmHg 87%
04:00 +23°C° 0 mm 1 mps 711 mmHg 87%
05:00 +22°C° 0 mm 0 mps 711 mmHg 85%
06:00 +23°C° 0 mm 0 mps 712 mmHg 83%
07:00 +23°C° 0 mm 0 mps 712 mmHg 81%
08:00 +27°C° 0 mm 1 mps 712 mmHg 73%
09:00 +29°C° 0 mm 1 mps 713 mmHg 65%
10:00 +31°C° 0 mm 1 mps 713 mmHg 58%
11:00 +31°C° 0.3 mm 1 mps 712 mmHg 56%
12:00 +31°C° 0.3 mm 1 mps 712 mmHg 55%
13:00 +32°C° 0.3 mm 1 mps 711 mmHg 54%
14:00 +31°C° 0.2 mm 1 mps 710 mmHg 60%
15:00 +30°C° 0.2 mm 2 mps 710 mmHg 65%
16:00 +29°C° 0.2 mm 2 mps 709 mmHg 71%
17:00 +28°C° 0 mm 2 mps 709 mmHg 76%
18:00 +26°C° 0 mm 2 mps 709 mmHg 81%
19:00 +25°C° 0 mm 1 mps 709 mmHg 86%
20:00 +24°C° 0 mm 1 mps 710 mmHg 86%
21:00 +24°C° 0 mm 1 mps 710 mmHg 86%
22:00 +24°C° 0 mm 1 mps 711 mmHg 86%
23:00 +24°C° 0 mm 1 mps 710 mmHg 87%

Tomorrow, 27 September, Sunday

Time Temperature Precipitation Wind Pressure Humidity
00:00 +23°C° 0 mm 1 mps 710 mmHg 88%
01:00 +23°C° 0 mm 1 mps 709 mmHg 90%
02:00 +23°C° 0 mm 1 mps 709 mmHg 89%
03:00 +23°C° 0 mm 1 mps 709 mmHg 89%
04:00 +23°C° 0 mm 1 mps 709 mmHg 89%
05:00 +22°C° 0 mm 0 mps 709 mmHg 85%
06:00 +23°C° 0 mm 0 mps 710 mmHg 82%
07:00 +24°C° 0 mm 0 mps 710 mmHg 78%
08:00 +26°C° 0 mm 0 mps 710 mmHg 72%
09:00 +29°C° 0 mm 1 mps 711 mmHg 66%
10:00 +31°C° 0 mm 1 mps 711 mmHg 59%
11:00 +31°C° 0.4 mm 1 mps 710 mmHg 61%
12:00 +31°C° 0.4 mm 1 mps 710 mmHg 63%
13:00 +31°C° 0.4 mm 1 mps 709 mmHg 65%
14:00 +30°C° 0.7 mm 1 mps 708 mmHg 69%
15:00 +30°C° 0.7 mm 1 mps 708 mmHg 74%
16:00 +29°C° 0.7 mm 1 mps 708 mmHg 78%
17:00 +28°C° 0.2 mm 1 mps 708 mmHg 82%
18:00 +26°C° 0.2 mm 1 mps 708 mmHg 86%
19:00 +25°C° 0.2 mm 1 mps 709 mmHg 89%
20:00 +25°C° 0.4 mm 1 mps 709 mmHg 90%
21:00 +24°C° 0.4 mm 1 mps 709 mmHg 91%
22:00 +24°C° 0.4 mm 1 mps 709 mmHg 91%
23:00 +24°C° 0 mm 1 mps 709 mmHg 91%

Day after tomorrow, 28 September, Monday

Time Temperature Precipitation Wind Pressure Humidity
00:00 +24°C° 0 mm 1 mps 709 mmHg 91%
01:00 +23°C° 0 mm 1 mps 708 mmHg 91%
02:00 +23°C° 0 mm 1 mps 708 mmHg 91%
03:00 +23°C° 0 mm 1 mps 708 mmHg 91%
04:00 +23°C° 0 mm 1 mps 708 mmHg 91%
05:00 +22°C° 0 mm 0 mps 708 mmHg 89%
06:00 +23°C° 0 mm 0 mps 709 mmHg 87%
07:00 +24°C° 0 mm 0 mps 710 mmHg 85%
08:00 +27°C° 0 mm 1 mps 710 mmHg 76%
09:00 +29°C° 0 mm 1 mps 710 mmHg 68%
10:00 +31°C° 0 mm 1 mps 711 mmHg 60%
11:00 +31°C° 0.1 mm 1 mps 710 mmHg 59%
12:00 +31°C° 0.1 mm 1 mps 709 mmHg 58%
13:00 +32°C° 0.1 mm 1 mps 709 mmHg 56%
14:00 +31°C° 0.4 mm 1 mps 708 mmHg 61%
15:00 +30°C° 0.4 mm 1 mps 708 mmHg 66%
16:00 +30°C° 0.4 mm 1 mps 708 mmHg 71%
17:00 +28°C° 0.8 mm 1 mps 708 mmHg 76%
18:00 +27°C° 0.8 mm 1 mps 708 mmHg 82%
19:00 +25°C° 0.8 mm 2 mps 708 mmHg 88%
20:00 +25°C° 0.5 mm 1 mps 709 mmHg 87%
21:00 +25°C° 0.5 mm 1 mps 709 mmHg 87%
22:00 +25°C° 0.5 mm 1 mps 709 mmHg 87%
23:00 +24°C° 0.7 mm 1 mps 709 mmHg 86%

29 September, Tuesday

Time Temperature Precipitation Wind Pressure Humidity
00:00 +24°C° 0.7 mm 1 mps 709 mmHg 86%
01:00 +24°C° 0.7 mm 1 mps 708 mmHg 85%
02:00 +24°C° 0.2 mm 1 mps 708 mmHg 85%
03:00 +24°C° 0.2 mm 1 mps 708 mmHg 85%
04:00 +23°C° 0.2 mm 1 mps 708 mmHg 85%
05:00 +24°C° 0.1 mm 1 mps 709 mmHg 84%
06:00 +25°C° 0.1 mm 1 mps 710 mmHg 83%
07:00 +26°C° 0.1 mm 1 mps 711 mmHg 82%
08:00 +26°C° 0.8 mm 2 mps 711 mmHg 79%
09:00 +27°C° 0.8 mm 2 mps 711 mmHg 77%
10:00 +28°C° 0.8 mm 3 mps 711 mmHg 75%
11:00 +29°C° 0.8 mm 3 mps 711 mmHg 73%
12:00 +29°C° 0.8 mm 3 mps 710 mmHg 72%
13:00 +29°C° 0.8 mm 3 mps 710 mmHg 70%
14:00 +28°C° 1 mm 2 mps 709 mmHg 73%
15:00 +28°C° 1 mm 2 mps 709 mmHg 76%
16:00 +27°C° 1 mm 2 mps 708 mmHg 79%
17:00 +26°C° 0.1 mm 1 mps 709 mmHg 82%
18:00 +25°C° 0.1 mm 1 mps 709 mmHg 84%
19:00 +24°C° 0.1 mm 1 mps 710 mmHg 87%
20:00 +24°C° 0 mm 1 mps 710 mmHg 87%
21:00 +24°C° 0 mm 1 mps 710 mmHg 87%
22:00 +23°C° 0 mm 1 mps 710 mmHg 87%
23:00 +23°C° 0 mm 1 mps 710 mmHg 87%

30 September, Wednesday

Time Temperature Precipitation Wind Pressure Humidity
00:00 +23°C° 0 mm 1 mps 710 mmHg 86%
01:00 +23°C° 0 mm 1 mps 709 mmHg 86%
02:00 +23°C° 0 mm 1 mps 709 mmHg 85%
03:00 +23°C° 0 mm 1 mps 709 mmHg 85%
04:00 +23°C° 0 mm 1 mps 709 mmHg 84%
05:00 +24°C° 0 mm 1 mps 710 mmHg 83%
06:00 +23°C° 0 mm 0 mps 711 mmHg 82%
07:00 +24°C° 0 mm 0 mps 711 mmHg 81%
08:00 +27°C° 0 mm 1 mps 712 mmHg 74%
09:00 +29°C° 0 mm 1 mps 712 mmHg 67%
10:00 +30°C° 0 mm 2 mps 712 mmHg 61%
11:00 +31°C° 0.1 mm 2 mps 712 mmHg 60%
12:00 +31°C° 0.1 mm 2 mps 711 mmHg 60%
13:00 +31°C° 0.1 mm 3 mps 710 mmHg 59%
14:00 +30°C° 0.9 mm 2 mps 710 mmHg 65%
15:00 +29°C° 0.9 mm 2 mps 709 mmHg 71%
16:00 +29°C° 0.9 mm 1 mps 709 mmHg 76%
17:00 +27°C° 0.2 mm 1 mps 709 mmHg 80%
18:00 +26°C° 0.2 mm 1 mps 710 mmHg 83%
19:00 +25°C° 0.2 mm 1 mps 710 mmHg 86%
20:00 +24°C° 0.2 mm 1 mps 710 mmHg 87%
21:00 +24°C° 0.2 mm 1 mps 710 mmHg 87%
22:00 +24°C° 0.2 mm 1 mps 711 mmHg 88%
23:00 +24°C° 0.1 mm 1 mps 710 mmHg 88%

1 October, Thursday

Time Temperature Precipitation Wind Pressure Humidity
00:00 +24°C° 0.1 mm 1 mps 710 mmHg 88%
01:00 +24°C° 0.1 mm 1 mps 709 mmHg 88%
02:00 +23°C° 0.1 mm 1 mps 709 mmHg 88%
03:00 +23°C° 0.1 mm 1 mps 709 mmHg 87%
04:00 +23°C° 0.1 mm 1 mps 709 mmHg 87%
05:00 +24°C° 0 mm 1 mps 710 mmHg 84%
06:00 +23°C° 0 mm 0 mps 710 mmHg 82%
07:00 +24°C° 0 mm 0 mps 711 mmHg 80%
08:00 +27°C° 0 mm 1 mps 711 mmHg 73%
09:00 +29°C° 0 mm 1 mps 711 mmHg 67%
10:00 +30°C° 0 mm 1 mps 711 mmHg 61%
11:00 +30°C° 0.9 mm 2 mps 710 mmHg 64%
12:00 +30°C° 0.9 mm 2 mps 709 mmHg 67%
13:00 +30°C° 0.9 mm 2 mps 709 mmHg 70%
14:00 +29°C° 1.4 mm 2 mps 708 mmHg 72%
15:00 +29°C° 1.4 mm 2 mps 708 mmHg 74%
16:00 +29°C° 1.4 mm 1 mps 708 mmHg 76%
17:00 +27°C° 0.8 mm 1 mps 708 mmHg 80%
18:00 +26°C° 0.8 mm 2 mps 708 mmHg 83%
19:00 +25°C° 0.8 mm 2 mps 709 mmHg 87%
20:00 +24°C° 0.1 mm 1 mps 709 mmHg 87%
21:00 +24°C° 0.1 mm 1 mps 709 mmHg 87%
22:00 +24°C° 0.1 mm 1 mps 710 mmHg 88%
23:00 +24°C° 0 mm 1 mps 709 mmHg 88%
Show more